Location: Dampvalley
(47.9094°N, 6.1967°E)
Time: 02:35:42
(UTC+00:00)

N. Korean satellite - Pass Details

Date: 07 December 2022
Orbit: 408 x 444 km, 97.3° (Epoch: 28 January)

Event Time Altitude Azimuth Distance (km) Brightness Sun altitude
Rises 06:06:54 0° 357° (N) 2,513 9.9 -10.2°
Reaches altitude 10° 06:09:33 10° 335° (NNW) 1,623 8.8 -9.8°
Maximum altitude 06:11:44 16° 296° (WNW) 1,289 8.0 -9.4°
Drops below altitude 10° 06:13:53 10° 257° (WSW) 1,598 8.7 -9.1°
Sets 06:16:28 0° 235° (SW) 2,453 9.8 -8.7°
